Location: Felsheim
(48.7267°N, 10.7386°E)
Time: 01:14:56
(UTC+00:00)

CZ-4C R/B - Pass Details

Date: 09 April 2020
Orbit: 637 x 1365 km, 63.4° (Epoch: 03 June)

Event Time Altitude Azimuth Distance (km) Brightness Sun altitude
Rises 22:38:31 0° 314° (NW) 3,881 6.4 -32.6°
Reaches altitude 10° 22:41:14 10° 306° (NW) 3,024 5.6 -32.7°
Enters shadow 22:46:59 36° 257° (WSW) 1,867 3.8 -32.8°
